GW4044 Weather Reports


time (UTC)temp
C
wind
direction
speed
KPH
gust
KPH
rain 1hr
cm
rain 24hr
cm
rain mn
cm
humidity
%
barometer
mb
20260509090013 15 161 0.0 3.2 0.00 0.00 0.00 90 1013.0
20260509084517 15 161 0.0 3.2 0.00 0.00 0.00 90 1013.2
20260509083004 15 161 0.0 3.2 0.00 0.00 0.00 89 1013.1
20260509081506 15 160 0.0 3.2 0.00 0.00 0.00 88 1012.7
20260509080011 15 242 0.0 3.2 0.00 0.00 0.00 89 1013.2
20260509074517 15 236 1.6 6.4 0.00 0.00 0.00 88 1013.3
20260509073018 15 283 0.0 1.6 0.00 0.00 0.00 88 1013.5
20260509071503 16 55 0.0 3.2 0.00 0.00 0.00 87 1013.3
20260509070010 16 92 0.0 3.2 0.00 0.00 0.00 87 1013.4
20260509064510 16 13 1.6 3.2 0.00 0.00 0.00 86 1013.3
20260509063026 16 28 4.8 6.4 0.00 0.00 0.00 86 1013.7
20260509061522 16 281 0.0 1.6 0.00 0.00 0.00 86 1014.3
20260509060006 16 309 0.0 3.2 0.00 0.00 0.00 85 1014.4
20260509054509 16 257 0.0 3.2 0.00 0.00 0.00 84 1014.8
20260509053013 16 26 0.0 3.2 0.00 0.00 0.00 84 1014.3
20260509051520 16 13 1.6 3.2 0.00 0.00 0.00 83 1014.5
20260509050024 16 48 1.6 1.6 0.00 0.00 0.00 82 1014.9
20260509044526 16 13 1.6 3.2 0.00 0.00 0.00 82 1015.5
20260509043011 16 200 0.0 3.2 0.00 0.00 0.00 82 1015.8
20260509041521 16 148 0.0 6.4 0.00 0.00 0.00 1015.5
20260509040021 16 142 1.6 6.4 0.00 0.00 0.00 80 1015.2
20260509034526 16 160 3.2 6.4 0.00 0.00 0.00 81 1015.6
20260509033026 16 213 3.2 8.0 0.00 0.00 0.00 80 1015.7
20260509031516 16 180 1.6 4.8 0.00 0.00 0.00 80 1015.8
20260509030022 17 48 1.6 4.8 0.00 0.00 0.00 79 1015.9
20260509024526 17 144 0.0 3.2 0.00 0.00 0.00 80 1016.1
20260509023029 17 144 0.0 3.2 0.00 0.00 0.00 79 1016.0
20260509021534 17 144 0.0 3.2 0.00 0.00 0.00 77 1016.1
20260509020037 17 144 1.6 3.2 0.00 0.00 0.00 77 1015.9
20260509014511 17 144 0.0 3.2 0.00 0.00 0.00 77 1015.7
20260509013017 17 165 1.6 3.2 0.00 0.00 0.00 76 1015.5
20260509011508 17 158 3.2 6.4 0.00 0.00 0.00 75 1015.5
20260509010013 17 165 1.6 4.8 0.00 0.00 0.00 76 1015.6
20260509004520 18 157 1.6 3.2 0.00 0.00 0.00 74 1015.3
20260509003004 18 142 3.2 6.4 0.00 0.00 0.00 72 1015.1
20260509001506 18 153 4.8 8.0 0.00 0.00 0.00 71 1015.0
20260509000011 19 150 3.2 11.3 0.00 0.00 0.00 69 1014.9
20260508234514 19 193 4.8 9.7 0.00 0.00 0.00 68 1014.9
20260508233022 20 153 8.0 11.3 0.00 0.00 0.00 67 1014.5
20260508231504 20 174 3.2 11.3 0.00 0.00 0.00 66 1014.6
20260508230009 20 177 6.4 17.7 0.00 0.00 0.00 65 1014.6
20260508224519 20 148 8.0 17.7 0.00 0.00 0.00 63 1014.9
20260508223021 21 121 11.3 16.1 0.00 0.00 0.00 58 1014.7
20260508221522 22 64 6.4 8.0 0.00 0.00 0.00 50 1014.1
20260508220005 22 90 1.6 3.2 0.00 0.00 0.00 48 1014.4
20260508214524 22 74 3.2 4.8 0.00 0.00 0.00 47 1014.4
20260508213016 22 78 1.6 8.0 0.00 0.00 0.00 46 1014.3
20260508211533 22 113 4.8 12.9 0.00 0.00 0.00 47 1014.5
20260508210026 22 38 1.6 6.4 0.00 0.00 0.00 46 1014.7
20260508204507 22 70 3.2 8.0 0.00 0.00 0.00 47 1014.6
20260508203012 22 151 6.4 12.9 0.00 0.00 0.00 47 1014.6
20260508201520 22 187 4.8 9.7 0.00 0.00 0.00 48 1014.6
20260508200022 22 155 4.8 12.9 0.00 0.00 0.00 48 1014.7
20260508194533 22 158 6.4 12.9 0.00 0.00 0.00 50 1015.0
20260508193010 22 225 4.8 12.9 0.00 0.00 0.00 49 1015.5
20260508190019 22 132 8.0 12.9 0.00 0.03 0.00 48 1015.5
20260508184524 22 62 0.0 12.9 0.00 0.10 0.00 48 1015.8
20260508183029 22 123 3.2 11.3 0.00 0.25 0.00 47 1015.9
20260508181513 21 352 1.6 14.5 0.00 0.28 0.00 47 1016.1
20260508180018 21 151 4.8 14.5 0.00 0.30 0.00 47 1016.2
20260508174530 21 9 3.2 11.3 0.00 0.30 0.00 47 1016.4
20260508173026 21 41 8.0 12.9 0.00 0.30 0.00 48 1016.6
20260508171530 21 59 3.2 14.5 0.00 0.30 0.00 48 1016.7
20260508170026 21 309 8.0 16.1 0.00 0.30 0.00 46 1016.9
20260508164520 21 5 6.4 14.5 0.00 0.33 0.00 47 1017.0
20260508163002 20 107 1.6 14.5 0.00 0.33 0.00 53 1017.2
20260508161526 21 129 3.2 12.9 0.00 0.33 0.00 51 1017.3
20260508160013 20 79 1.6 17.7 0.00 0.33 0.00 53 1017.7
20260508154542 20 51 8.0 19.3 0.00 0.36 0.00 52 1018.0
20260508153004 20 99 6.4 16.1 0.00 0.36 0.00 56 1018.2
20260508151525 19 32 8.0 16.1 0.00 0.38 0.00 57 1018.0
20260508150009 19 94 8.0 17.7 0.00 0.41 0.00 61 1018.2
20260508144516 18 53 8.0 19.3 0.00 0.41 0.00 58 1018.1
20260508143022 18 340 12.9 27.4 0.00 0.41 0.00 56 1018.2
20260508141504 17 27 11.3 24.1 0.00 0.41 0.00 61 1018.1
20260508140007 17 51 11.3 20.9 0.00 0.41 0.00 63 1017.8
20260508134514 17 9 12.9 22.5 0.00 0.41 0.00 68 1017.9
20260508133029 16 11 6.4 24.1 0.00 0.41 0.00 74 1017.6
20260508131521 16 76 9.7 16.1 0.00 0.41 0.00 77 1017.3
20260508130008 15 41 8.0 14.5 0.00 0.41 0.00 81 1017.4
20260508124512 15 36 8.0 17.7 0.00 0.41 0.00 83 1017.2
20260508123026 15 67 6.4 17.7 0.00 0.41 0.00 87 1017.1
20260508121528 15 54 6.4 12.9 0.00 0.41 0.00 87 1017.0
20260508120024 14 34 3.2 9.7 0.00 0.41 0.00 88 1016.8
20260508114508 14 9 6.4 11.3 0.00 0.41 0.00 89 1016.6
20260508113018 14 26 3.2 6.4 0.00 0.41 0.00 90 1016.1
20260508111517 13 19 1.6 4.8 0.00 0.41 0.00 91 1015.8
20260508110029 13 352 1.6 4.8 0.00 0.41 0.00 91 1015.9
20260508104530 13 352 1.6 4.8 0.00 0.41 0.00 91 1015.5
20260508103032 13 348 3.2 6.4 0.00 0.43 0.00 90 1015.2
20260508101514 13 9 3.2 6.4 0.00 0.46 0.00 90 1014.7
20260508100019 14 18 1.6 4.8 0.00 0.66 0.00 90 1014.6
20260508094523 14 9 3.2 6.4 0.00 0.69 0.00 89 1014.4
20260508093026 14 11 3.2 8.0 0.00 0.69 0.00 89 1014.5
20260508091528 14 15 1.6 3.2 0.00 0.69 0.00 89 1014.3